Location: Chevoux
(46.3801°N, 4.9476°E)
Time: 03:34:51
(UTC+00:00)

ISS - Pass Details

Date: 02 December 2021
Orbit: 413 x 422 km, 51.6° (Epoch: 22 January)

Event Time Altitude Azimuth Distance (km) Brightness Sun altitude
Rises 18:24:29 0° 296° (WNW) 2,384 1.0 -25.0°
Reaches altitude 10° 18:26:36 10° 296° (WNW) 1,514 -0.2 -25.4°
Enters shadow 18:28:17 27° 296° (WNW) 850 -1.7 -25.7°
